Aeroporto :
LOGIN :

Iscrizione | Disclaimer

   EN    FR    IT 

 










Sommario :    VFR   VFR Marginale   IFR   IFR Intensivo   IFR Molto Intensivo
Visibilità : 
Base nubi : 
>= 8 km
>= 3000ft
5 / 8 km
1000 / 3000 ft
1500m / 5 km
500 / 1000 ft
800 / 1500m
200 / 500 ft
< 800m
< 200 ft
Simboli :   Temporali  Nebbia  Neve Forte  Precipitazioni Forti  Vento > 20 kt
SIGMETs :   Varie  Temporali  Ghiacco  Turbolenza  Onda orograficha  Ceneri Vulcaniche






- Altitudine del aeroporto : 538 ft
- Codice IATA : TNF


LFPN - Toussus Le Noble

ULTIMO METAR :
  • 140730Z AUTO 31008KT CAVOK 19/09 Q1018 NOSIG

METARs OBSOLETI :
  • 140700Z AUTO 31006KT 280V340 CAVOK 19/09 Q1018 NOSIG
  • 140630Z AUTO 31005KT 250V360 CAVOK 18/09 Q1018 NOSIG
  • 140600Z AUTO 00000KT CAVOK 16/09 Q1018 NOSIG
  • 140530Z AUTO 31002KT CAVOK 15/09 Q1018
  • 140500Z AUTO 33003KT CAVOK 14/08 Q1018

TAF TAF LFPN
Valido dal 14 a 06 ore il 14 a 15 ore UTC


140500Z 1406/1415 29006KT CAVOK
PROB40
TEMPO 1408/1412 -RA SCT015 BKN020
PROB30
TEMPO 1413/1415 -SHRA BKN025TCU
ATIS : +33 1 39 56 54 70



MetMap, La meteo Aeronautica in un colpo d'occhio ! - Copyright ORBIFLY Dicembre 2007 - Disclaimer

ORBIFLY MET'MAP TEAM :

Programmazione e sviluppo : Alexandra Zaïnal
Concezione : Baudouin d'Aumeries
Aiuto per la programmazione : Marc-Olivier Méhu
Supporto tecnico e logistico : Manuel Goepfert
Aiuto per la traduzione : Arnaldo La Scala

Contatto : metmap@orbifly.com




FONTI E CREDITI :

   NOAA